[[{"header":{"parameterUnit":"m.s-1","parameterCategory":1,"la1":30.2991,"la2":30.254,"lo1":-89.0895,"lo2":-89.0444,"dy":0.0017,"dx":0.0017,"nx":28,"ny":28,"refTime":"2024-08-24T09:00:00:Z","depth":0,"parameterNumber":2,"parameterNumberName":"U-component_of_WINDS"},"data":[0,0,0,0,0,0,0,0,0,0,0,0,0,0,0,0,0,0,0,0,0,0,0,0,0,0,0,0,0,0,0,0,0,0,0,0,0,0,0,0,0,0,0,0,0,0,0,0,0,0,0,0,0,0,0,0,0,0,-5.9572,-5.9572,0,-5.957,-5.957,-5.957,-5.9463,-5.946,-5.9457,-5.9454,-5.9453,-5.9456,-5.9458,0,0,0,0,0,0,0,0,0,0,0,0,0,-5.9481,-5.9484,-5.9572,-5.9572,-5.9572,-5.957,-5.957,-5.957,-5.9463,-5.946,-5.9456,-5.9453,-5.9452,-5.9455,-5.9458,0,0,0,0,0,0,0,0,0,0,0,0,0,-5.9504,-5.9484,-5.9572,-5.9518,-5.9513,-5.957,-5.957,-5.957,-5.9464,-5.946,-5.9455,-5.9451,-5.9451,-5.9455,-5.9459,-5.9567,0,0,-5.9471,-5.9472,0,0,0,0,0,0,0,0,-5.9503,-5.9508,-5.9526,-5.9522,-5.9517,-5.9512,-5.9538,-5.9569,-5.9465,-5.9483,-5.9454,-5.9449,-5.9476,-5.9478,-5.9487,-5.9567,-5.9567,-5.9471,-5.9473,-5.9475,-5.9476,0,0,0,0,0,0,0,-5.9502,-5.9507,-5.9571,-5.9526,-5.9521,-5.9494,-5.9493,-5.9543,-5.9503,-5.9481,-5.9473,-5.9474,-5.9473,-5.9483,-5.9486,-5.9567,-5.9471,-5.9474,-5.9477,-5.9478,-5.9735,-5.974,0,0,0,0,0,0,-5.9508,-5.9507,-5.9571,-5.9571,-5.9499,-5.9499,-5.9497,-5.9518,-5.9502,-5.9496,-5.9478,-5.9469,-5.9479,-5.9482,-5.9486,-5.9609,-5.9475,-5.9479,-5.9481,-5.9731,-5.9736,-5.9741,0,0,0,0,0,0,-5.9506,-5.9514,-5.9571,-5.9537,-5.9542,-5.9505,-5.9529,-5.952,-5.953,-5.95,-5.9492,-5.9496,-5.9476,-5.948,-5.9547,-5.9608,-5.948,-5.9484,-5.9726,-5.9733,-5.9739,-5.986,0,0,0,0,0,0,-5.9504,-5.9514,-5.9555,-5.9539,-5.9544,-5.9633,-5.9533,-5.9523,-5.9537,-5.9526,-5.9515,-5.9509,-5.9473,-5.9542,-5.9551,-5.9611,-5.9487,-5.972,-5.9729,-5.9737,-5.985,-5.987,-5.9887,0,0,0,0,0,-5.9501,-5.959,-5.9558,-5.9566,-5.9594,-5.9637,-5.964,-5.9596,-5.9543,-5.9583,-5.9564,-5.9509,-5.9601,-5.955,-5.9559,-5.9621,-5.9716,-5.9726,-5.9736,-5.9842,-5.9866,-5.9886,0,0,0,0,0,0,-5.9614,-5.9586,-5.9551,-5.9637,-5.964,-5.9619,-5.9668,-5.9624,-5.9642,-5.9631,-5.9576,-5.9574,-5.965,-5.9643,-5.9587,-5.9725,-5.9649,-5.9661,-5.9726,-5.9749,-5.9767,-5.9765,-5.949,0,0,0,0,0,-5.9649,-5.9686,-5.966,-5.9738,-5.9742,-5.9706,-5.9722,-5.9689,-5.969,-5.9691,-5.9676,-5.9679,-5.9708,-5.9729,-5.9754,-5.985,-5.9845,-5.9897,-5.9916,-5.9931,-5.9941,-5.9989,-6.0011,-5.9774,-5.9774,-5.9774,0,0,-5.9722,-5.9711,-5.9738,-5.9761,-5.9759,-5.9798,-5.9707,-5.9753,-5.9781,-5.9697,-5.9759,-5.9749,-5.9749,-5.9831,-5.9866,-5.9827,-6.0006,-5.9944,-5.9956,-5.9958,-6.0002,-6.0024,-6.0044,-5.9781,-5.978,-5.9779,0,0,-5.9872,-5.987,-5.9933,-5.9934,-5.9933,-5.9908,-5.9924,-5.991,-5.99,-5.9961,-5.9899,-5.9933,-5.9985,-5.9987,-5.9995,-6.0148,-6.0098,-6.0159,-6.0252,-6.03,-6.0319,-6.0335,-6.0387,-6.0407,-6.017,-6.017,-6.017,0,-5.9962,-6.0018,-5.9972,-6.0021,-6.0032,-5.996,-6.0023,-6.0027,-6.0034,-6.0044,-6.0001,-6.0064,-6.0059,-6.0139,-6.0177,-6.0187,-6.0202,-6.0158,-6.032,-6.0336,-6.035,-6.0399,-6.0419,-6.0177,-6.0176,-6.0176,-6.0175,0,-6.0127,-6.0167,-6.0219,-6.0228,-6.0246,-6.0302,-6.0264,-6.0288,-6.0254,-6.0234,-6.0297,-6.0289,-6.0311,-6.0328,-6.0295,-6.0404,-6.0379,-6.033,-6.0251,-6.0381,-6.0426,-6.0444,-6.0187,-6.0185,-6.0183,-6.0181,0,0,-6.0345,-6.0329,-6.0348,-6.0351,-6.0346,-6.0376,-6.043,-6.0451,-6.0471,-6.048,-6.0522,-6.0569,-6.0522,-6.0532,-6.0499,-6.0542,-6.0661,-6.0486,-6.0485,-6.0516,-6.0777,-6.0812,-6.0835,-6.0629,-6.0633,-6.0636,-6.0776,0,-6.0489,-6.0578,-6.0538,-6.0631,-6.0667,-6.06,-6.0646,-6.0648,-6.0632,-6.066,-6.0642,-6.0674,-6.0612,-6.0617,-6.0656,-6.0638,-6.0712,-6.0628,-6.0666,-6.0668,-6.0664,-6.0858,-6.0895,-6.1028,-6.0794,-6.0797,-6.0799,0,-6.0667,-6.0682,-6.0779,-6.0767,-6.078,-6.0823,-6.0838,-6.0867,-6.0868,-6.0853,-6.0864,-6.0822,-6.0873,-6.0799,-6.0868,-6.0811,-6.0826,-6.082,-6.0824,-6.0822,-6.0738,-6.0859,-6.107,-6.1088,-6.0827,-6.0825,-6.0823,0,-6.0812,-6.0858,-6.0921,-6.0926,-6.0914,-6.0945,-6.0942,-6.0939,-6.0954,-6.0969,-6.0978,-6.1,-6.101,-6.1028,-6.0992,-6.0942,-6.1066,-6.0989,-6.1053,-6.1054,-6.1078,-6.1077,-6.1291,-6.1095,-6.1095,-6.1094,-6.1094,0,-6.0974,-6.1035,-6.0986,-6.1024,-6.1091,-6.1046,-6.1113,-6.1102,-6.11,-6.1135,-6.1081,-6.1115,-6.1067,-6.1097,-6.107,-6.113,-6.1137,-6.1125,-6.1116,-6.1127,-6.1129,-6.1133,-6.1121,-6.1099,-6.1098,-6.1097,-6.1096,0,-6.1145,-6.1115,-6.1179,-6.1163,-6.1161,-6.121,-6.1196,-6.1231,-6.1212,-6.1257,-6.1265,-6.1235,-6.1267,-6.1235,-6.1265,-6.1247,-6.1327,-6.1307,-6.1326,-6.1319,-6.1383,-6.1376,-6.1604,-6.1631,-6.1422,-6.1424,-6.1426,0,-6.1248,-6.1293,-6.1282,-6.1302,-6.1301,-6.1334,-6.1349,-6.1308,-6.1326,-6.1331,-6.1365,-6.1393,-6.1412,-6.1467,-6.1447,-6.147,-6.1448,-6.1527,-6.1451,-6.146,-6.1445,-6.1441,-6.1444,-6.1541,-6.1543,-6.1545,-6.1547,0,-6.1432,-6.1415,-6.1439,-6.1459,-6.1479,-6.1492,-6.1501,-6.1521,-6.1478,-6.1502,-6.1533,-6.1549,-6.158,-6.1607,-6.1625,-6.1621,-6.1576,-6.1572,-6.1587,-6.1596,-6.1604,-6.1597,-6.1363,-6.1565,-6.1563,-6.1562,-6.1561,-6.156,-6.1569,-6.1606,-6.1604,-6.1632,-6.1635,-6.1645,-6.1676,-6.1662,-6.1688,-6.1709,-6.1684,-6.1723,-6.1724,-6.1742,-6.1744,-6.1774,-6.174,-6.1764,-6.1769,-6.1774,-6.1782,-6.1604,-6.1778,-6.1777,-6.1777,-6.1776,-6.1776,0,-6.1747,-6.1743,-6.177,-6.1785,-6.1807,-6.1766,-6.1774,-6.1795,-6.183,-6.1835,-6.1855,-6.1892,-6.1919,-6.1903,-6.1925,-6.1952,-6.1932,-6.1959,-6.1954,-6.1954,-6.1812,-6.1795,-6.1975,-6.1975,-6.1975,-6.1975,-6.1975,-6.1975,-6.1842,-6.1901,-6.1884,-6.1944,-6.1939,-6.1977,-6.1985,-6.1994,-6.1996,-6.204,-6.2062,-6.2051,-6.2047,-6.207,-6.2093,-6.2087,-6.2096,-6.213,-6.2117,-6.1984,-6.1964,-6.1945,-6.1928,-6.2134,-6.2134,-6.2255,-6.2257,-6.2258]},{"header":{"parameterUnit":"m.s-1","parameterCategory":1,"la1":30.2991,"la2":30.254,"lo1":-89.0895,"lo2":-89.0444,"dy":0.0017,"dx":0.0017,"nx":28,"ny":28,"refTime":"2024-08-24T09:00:00:Z","depth":0,"parameterNumber":3,"parameterNumberName":"V-component_of_WINDS"},"data":[0,0,0,0,0,0,0,0,0,0,0,0,0,0,0,0,0,0,0,0,0,0,0,0,0,0,0,0,0,0,0,0,0,0,0,0,0,0,0,0,0,0,0,0,0,0,0,0,0,0,0,0,0,0,0,0,0,0,0.6187,0.6188,0,0.6277,0.6278,0.6279,0.6312,0.6312,0.6311,0.6311,0.6399,0.6402,0.6404,0,0,0,0,0,0,0,0,0,0,0,0,0,0.604,0.6043,0.6186,0.6188,0.6189,0.6277,0.6278,0.628,0.6312,0.6312,0.6311,0.6311,0.6398,0.6401,0.6404,0,0,0,0,0,0,0,0,0,0,0,0,0,0.6114,0.6043,0.6186,0.6216,0.6219,0.6277,0.6278,0.628,0.6312,0.6312,0.6311,0.6311,0.6397,0.6401,0.6405,0.6438,0,0,0.6417,0.6419,0,0,0,0,0,0,0,0,0.611,0.612,0.621,0.6214,0.6218,0.6283,0.6259,0.6333,0.6312,0.6277,0.6311,0.631,0.636,0.6367,0.6385,0.6442,0.6446,0.6417,0.642,0.6421,0.6422,0,0,0,0,0,0,0,0.6105,0.6116,0.6222,0.6211,0.6216,0.6224,0.6234,0.6273,0.632,0.628,0.6282,0.6293,0.6362,0.6381,0.6388,0.6448,0.6417,0.6421,0.6423,0.6425,0.6541,0.6541,0,0,0,0,0,0,0.6095,0.6111,0.6219,0.6225,0.6162,0.6227,0.6238,0.6262,0.632,0.6328,0.6293,0.6294,0.6375,0.6383,0.6391,0.6436,0.6421,0.6425,0.6427,0.654,0.6541,0.6542,0,0,0,0,0,0,0.6092,0.6105,0.6216,0.6169,0.6184,0.623,0.6257,0.6264,0.6283,0.633,0.6338,0.6304,0.6375,0.6385,0.6428,0.644,0.6427,0.643,0.6539,0.654,0.6541,0.6525,0,0,0,0,0,0,0.6088,0.6103,0.6116,0.6169,0.6186,0.6251,0.6258,0.6266,0.6291,0.6293,0.6342,0.635,0.6375,0.6421,0.6431,0.6445,0.6433,0.6538,0.654,0.6541,0.6525,0.6526,0.6527,0,0,0,0,0,0.6082,0.6106,0.6117,0.613,0.6204,0.6252,0.6261,0.6292,0.6291,0.6305,0.6336,0.6348,0.6437,0.6426,0.6437,0.6452,0.6538,0.6539,0.6541,0.6525,0.6526,0.6527,0,0,0,0,0,0,0.6051,0.6114,0.6126,0.6168,0.6205,0.6257,0.6275,0.6291,0.6327,0.6327,0.6362,0.6373,0.6413,0.6436,0.6423,0.6489,0.6488,0.6492,0.6472,0.6473,0.6474,0.6467,0.6437,0,0,0,0,0,0.605,0.6084,0.6137,0.6169,0.6187,0.6228,0.625,0.6271,0.6309,0.6324,0.6358,0.6394,0.643,0.6453,0.6489,0.6529,0.6541,0.6545,0.6546,0.6546,0.6549,0.6575,0.6578,0.6547,0.6547,0.6547,0,0,0.6045,0.6084,0.6103,0.6164,0.6194,0.623,0.6241,0.6276,0.6303,0.6329,0.6372,0.6398,0.6441,0.6483,0.6504,0.6504,0.6561,0.6548,0.6548,0.6551,0.6577,0.658,0.6583,0.6548,0.6548,0.6548,0,0,0.6057,0.6089,0.6121,0.6153,0.6201,0.6229,0.6236,0.6288,0.6307,0.6351,0.6373,0.6405,0.6466,0.6497,0.652,0.6548,0.6562,0.6559,0.6562,0.6587,0.6589,0.6592,0.6603,0.6607,0.6561,0.6561,0.6561,0,0.6045,0.61,0.6134,0.6171,0.6198,0.6226,0.6259,0.6288,0.6344,0.6362,0.6362,0.6443,0.6473,0.6525,0.6532,0.655,0.656,0.6552,0.6586,0.6589,0.6592,0.6603,0.6607,0.6561,0.6561,0.6561,0.6561,0,0.6085,0.6123,0.6143,0.62,0.6229,0.6262,0.6303,0.6328,0.6347,0.6375,0.6421,0.646,0.6505,0.6519,0.6537,0.6574,0.6574,0.658,0.658,0.6594,0.6605,0.661,0.656,0.656,0.656,0.6561,0,0,0.6075,0.6155,0.6161,0.6189,0.6246,0.6276,0.6313,0.636,0.6382,0.642,0.6452,0.6506,0.6514,0.654,0.6562,0.6584,0.6606,0.6588,0.659,0.6591,0.6652,0.6648,0.6652,0.6616,0.6617,0.6618,0.6649,0,0.6095,0.6163,0.6197,0.625,0.6287,0.6317,0.6349,0.6388,0.6416,0.6451,0.6482,0.652,0.6526,0.6543,0.6566,0.6599,0.6619,0.6597,0.6646,0.6648,0.6635,0.6658,0.6652,0.6679,0.6654,0.6654,0.6655,0,0.6125,0.6168,0.6225,0.6282,0.6299,0.6327,0.6375,0.6408,0.6453,0.6472,0.6505,0.6527,0.6567,0.6565,0.6622,0.6606,0.6629,0.6648,0.665,0.6656,0.6652,0.6664,0.6688,0.6693,0.6662,0.6661,0.6661,0,0.6115,0.6186,0.623,0.6253,0.632,0.6339,0.6368,0.6413,0.644,0.6482,0.6501,0.6545,0.657,0.6604,0.6638,0.6633,0.6693,0.6692,0.671,0.6709,0.672,0.6719,0.6748,0.6734,0.6734,0.6734,0.6734,0,0.6133,0.6167,0.6227,0.6254,0.6295,0.6335,0.6373,0.6403,0.6444,0.6478,0.6506,0.6537,0.6581,0.6618,0.6644,0.6689,0.6699,0.6716,0.6722,0.6713,0.6711,0.6728,0.6727,0.6735,0.6735,0.6734,0.6734,0,0.6127,0.6168,0.6219,0.628,0.6296,0.6323,0.6375,0.6403,0.6435,0.6477,0.649,0.6538,0.6584,0.6622,0.668,0.6698,0.6744,0.6752,0.673,0.6733,0.6749,0.6747,0.6791,0.6799,0.6778,0.6778,0.6778,0,0.6135,0.6163,0.6228,0.6255,0.6284,0.6324,0.6354,0.6395,0.6425,0.6481,0.6502,0.6551,0.6591,0.6662,0.6702,0.6748,0.6757,0.6769,0.6763,0.6755,0.6758,0.6757,0.676,0.6769,0.6769,0.6769,0.6769,0,0.6147,0.6168,0.621,0.626,0.6296,0.6337,0.6378,0.6398,0.6447,0.6479,0.6527,0.6559,0.6621,0.6668,0.672,0.6748,0.6767,0.6771,0.6778,0.6768,0.6755,0.6764,0.6731,0.6769,0.6769,0.6769,0.6769,0.6769,0.6149,0.6177,0.6228,0.6275,0.6312,0.6352,0.6382,0.6419,0.6461,0.6516,0.6538,0.6588,0.6635,0.6706,0.6736,0.6775,0.6778,0.6787,0.6789,0.6791,0.679,0.6749,0.6784,0.6784,0.6785,0.6785,0.6785,0,0.6163,0.6199,0.6242,0.6302,0.634,0.6358,0.6406,0.6436,0.648,0.6524,0.6565,0.6621,0.6669,0.6714,0.6764,0.6787,0.6797,0.6799,0.6798,0.6804,0.6784,0.6774,0.679,0.679,0.679,0.679,0.679,0.679,0.6175,0.6224,0.6251,0.6319,0.6354,0.6405,0.6431,0.6468,0.6504,0.6567,0.6608,0.6639,0.6684,0.6738,0.6783,0.6795,0.6812,0.6812,0.6826,0.6806,0.6805,0.6804,0.6795,0.6815,0.6815,0.6843,0.6843,0.6843]}]]